California State Race - ELK GROVE BLVD

Station: ELK GROVE BLVD - T Race

Distance: 77.234 Miles    

Release: 09-Oct-2019 07:25

Weather Release:    Arrival: dusty

Wind at Release: 5-10 nw     Wind at Arrival: 5-10 nw

Temp at Release: 56°    Temp at Arrival: 60°

Lofts: 74

Birds: 128

Clocked: 130

Good Luck to Everyone!
Drops Pos Breeder Pigeon Name Color Sex Ent Arrival Speed To Win Elg Pd
1 Frank Meder - CA 19040-AU19-TBW BCWF C 1 08:33:50.80 1974.408 00:00:00 Yes
2 Barbara Shulman - CA 2557-AU19-WSJ DC H 1 08:33:52.00 1973.834 00:00:01 Yes
3 Gary Robins - CA 0120-AU19-OCF DC 0 1 08:33:58.80 1970.591 00:00:08 Yes
4 Laszlo Zugor - CA 5304-AU19-SRP BC H 1 08:33:59.10 1970.448 00:00:08 Yes
5 Bieche & Lee - CA 9331-AU19-BIEC BC H 1 08:34:01.20 1969.449 00:00:10 Yes
6 Prout's Loft - CA 9345-AU19-GSF BB C 1 08:34:11.40 1964.610 00:00:21 Yes
7 Andrew Broster - CA 3744-AU19-ARC BB H 1 08:34:23.50 1958.901 00:00:33 Yes
8 Richard Norgrove - CA 90875-AU19-SOC BC C 1 08:34:25.90 1957.772 00:00:35 Yes
9 Jenkins Racing - CA 0760-AU19-JENK BC C 1 08:34:26.80 1957.349 00:00:36 Yes
10 Jim Cain - CA 6529-AU19-FSC BC H 1 08:34:32.20 1954.816 00:00:41 Yes
11 Old West Enders - CA 9347-AU19-GSF BB C 2 08:34:33.60 1954.160 00:00:43 Yes
12 Joyce Stierlin - CA 19256-AU19-A BBSP H 1 08:34:36.30 1952.897 00:00:46 Yes
13 Hung-Wen Hung - CA 19081-AU19-SVS BB C 1 08:34:39.40 1951.448 00:00:49 Yes
14 John Karnofel - CA 0008-AU19-KFL BC H 1 08:34:45.30 1948.697 00:00:55 Yes
15 Pat Siino - CA 9248-AU19-COOK BC C 1 08:34:50.10 1946.465 00:00:59 Yes
16 Mathews Brothers - CA 0203-AU19-MATH RGRZ 0 1 08:34:50.60 1946.233 00:01:00 Yes
17 Marshall Jespersen - CA 3205-AU19-ARC BB C 1 08:34:50.90 1946.093 00:01:00 Yes
18 Duane Gragg - CA 0933-AU19-KEY BB H 1 08:34:52.20 1945.490 00:01:01 Yes
19 Fernando Gonzalez - CA 1959-AU19-MTZ BC C 1 08:34:52.90 1945.165 00:01:02 Yes
20 Gold Star Loft - CA 1649-AU19-STON BB C 1 08:34:53.50 1944.887 00:01:03 Yes
21 Jim Vander Heide - CA 0131-AU19-OCF BCTK H 1 08:34:53.90 1944.701 00:01:03 Yes
22 Sal Perez - CA 0088-AU19-SFR BCWF H 1 08:35:00.50 1941.646 00:01:10 Yes
23 Grover Todd - CA 5004-AU19-FSC BB C 1 08:35:03.20 1940.398 00:01:12 Yes
24 Mike Belus - CA 9355-AU19-GSF BC H 3 08:35:05.60 1939.291 00:01:15 Yes
25 Trina Dewitt - CA 1827-AU19-PASO DC C 1 08:35:06.10 1939.061 00:01:15 Yes
26 Jim Looper - CA 1039-AU19-LOOP BB C 1 08:35:06.70 1938.784 00:01:16 Yes
27 Silicon Valley Syndicates - CA 19075-AU19-SVS BB C 1 08:35:13.50 1935.655 00:01:23 Yes
28 Sal Perez - CA 0064-AU19-SFR BC C 2 08:35:14.00 1935.425 00:01:23 Yes
29 John Partridge - CA 9339-AU19-GSF BC C 4 08:35:14.90 1935.012 00:01:24 Yes
30 Master One - CA 9228-AU19-COOK BB H 1 08:35:15.50 1934.737 00:01:25 Yes
31 C.J. Watkins - CA 1826-AU19-PASO DC H 1 08:35:18.60 1933.315 00:01:28 Yes
32 Steve Sterchi - CA 1919-AU19-SR BB H 1 08:35:22.60 1931.484 00:01:32 Yes
33 Avelino Loft - CA 0379-AU19-HAN BBWF H 1 08:35:24.50 1930.615 00:01:34 Yes
34 C.J. Watkins - CA 1836-AU19-PASO BB C 2 08:35:25.40 1930.204 00:01:35 Yes
35 Robert Lin - CA 19084-AU19-SVS DCPD H 1 08:35:28.40 1928.834 00:01:38 Yes
36 Steve Hendricks - CA 3801-AU19-ARC BB H 1 08:35:31.50 1927.421 00:01:41 Yes
37 Frank Meder - CA 19044-AU19-TBW MLY H 2 08:35:33.00 1926.738 00:01:42 Yes
38 Bieche & Lee - CA 9292-AU19-BIEC BB H 2 08:35:34.00 1926.283 00:01:43 Yes
39 John Partridge - CA 1648-AU19-PASO BC H 1 08:35:34.70 1925.965 00:01:44 Yes
40 Jim Edgeworth - CA 2739-AU19-ARPU BB C 1 08:35:40.50 1923.330 00:01:50 Yes
41 Gary Robins - CA 9254-AU19-GSF BC C 5 08:35:42.80 1922.288 00:01:52 Yes
42 Padilla - CA 1682-AU19-MTZ BB H 1 08:35:44.50 1921.518 00:01:54 Yes
43 Silicon Valley Syndicates - CA 19065-AU19-SVS BBWF C 2 08:35:46.80 1920.477 00:01:56 Yes
44 Duane Gragg - CA 0997-AU19-KEY BC H 2 08:35:47.80 1920.025 00:01:57 Yes
45 Dino D'ercole - CA 0507-AU19-SFR BB C 1 08:35:52.50 1917.903 00:02:02 Yes
46 Sam Ochoa - CA 39676-AU19-AA BB 1 1 08:35:52.90 1917.723 00:02:02 Yes
47 Mihaela Chelaru - CA 0104-AU19-BPRC SIL C 1 08:35:54.10 1917.182 00:02:03 Yes
48 Armando De La O - CA 9117-AU19-COOK LTCK H 1 08:35:56.80 1915.966 00:02:06 Yes
49 Minerva Fernandez - CA 9229-AU19-COOK BB H 1 08:35:57.10 1915.831 00:02:06 Yes
50 Darryl Coston - CA 1842-AU19-ARPU BC H 1 08:36:07.00 1911.386 00:02:16 Yes
51 Richard Norgrove - CA 90866-AU19-SOC BC H 2 08:36:10.70 1909.730 00:02:20 Yes
52 Bob Bostwick - CA 0933-AU19-COCO BBWF H 1 08:36:13.90 1908.300 00:02:23 Yes
53 Jim Vander Heide - CA 9272-AU19-GSF BC C 6 08:36:14.40 1908.077 00:02:24 Yes
54 John Partridge - CA 9265-AU19-GSF BB C 7 08:36:15.70 1907.496 00:02:25 Yes
55 Chelaru Family Loft - CA 0127-AU19-BPRC BBWF C 1 08:36:16.90 1906.961 00:02:26 Yes
56 Sal Perez - CA 14062-AU19-AA BC H 3 08:36:17.20 1906.828 00:02:26 Yes
57 Wessel Family Lofts - CA 3029-AU19-ARC BB H 1 08:36:27.00 1902.469 00:02:36 Yes
58 Master One - CA 9225-AU19-COOK LTCK H 2 08:36:27.70 1902.158 00:02:37 Yes
59 Stanton Woody - CA 80510-AU19-MAN BB H 1 08:36:28.80 1901.670 00:02:38 Yes
60 Christian Gluck - CA 0779-AU19-SD BC H 1 08:36:31.20 1900.607 00:02:40 Yes
61 Vidal Gonzalez - CA 9262-AU19-GSF RC C 8 08:36:37.80 1897.688 00:02:47 Yes
62 Stanton Woody - CA 80509-AU19-MAN BC H 2 08:36:46.60 1893.810 00:02:56 Yes
63 Fred Belus - CA 0249-AU19-BPRC BC H 1 08:36:48.10 1893.151 00:02:57 Yes
64 Dr. Kelly - CA 3327-AU19-ARC BBSP H 1 08:36:58.70 1888.504 00:03:08 Yes
65 Robert Lin - CA 19064-AU19-SVS BCWF C 2 08:37:00.40 1887.761 00:03:10 Yes
66 Osty Loft - CA 4583-AU19-JEDD BB C 1 08:37:11.50 1882.923 00:03:21 Yes
67 Silicon Valley Syndicates - CA 19079-AU19-SVS BBWF H 3 08:37:14.50 1881.620 00:03:24 Yes
68 Jeff Decker - CA 1923-AU19-JTD BB 1 1 08:37:17.00 1880.536 00:03:26 Yes
69 Mike Gonigan - CA 80305-AU19-MAN BB H 1 08:37:27.70 1875.907 00:03:37 Yes
70 Lopez/Saenz - CA 9092-AU19-CGR BB C 1 08:37:28.00 1875.778 00:03:37 Yes
71 Dan Severns - CA 80739-AU19-MAN BB H 1 08:37:28.50 1875.562 00:03:38 Yes
72 Mathews Brothers - CA 9316-AU19-GSF BBWF H 9 08:37:30.50 1874.700 00:03:40 Yes
73 Steve Paine - CA 0444-AU19-HOP BC 1 1 08:37:33.20 1873.537 00:03:42 Yes
74 Jim Vander Heide - CA 0129-AU19-OCF BC C 2 08:37:38.80 1871.130 00:03:48 Yes
75 Perez-Lafauci - CA 0084-AU19-SFR BC C 1 08:37:41.20 1870.101 00:03:50 Yes
76 Padilla - CA 0729-AU19-SFPC BB C 2 08:37:44.90 1868.515 00:03:54 Yes
77 Gold Star Loft - CA 1671-AU19-STON BB H 2 08:38:37.60 1846.225 00:04:47 Yes
78 Dan Severns - CA 80741-AU19-MAN BC H 2 08:40:15.50 1806.197 00:06:25 Yes
79 Silicon Valley Syndicates - CA 19070-AU19-SVS BB H 4 08:40:47.00 1793.684 00:06:56 Yes
80 Wessel Family Lofts - CA 3027-AU19-ARC BB H 2 08:40:47.70 1793.408 00:06:57 Yes
81 Van Gruen Loft - CA 1942-AU19-VANG BC H 1 08:42:07.90 1762.329 00:08:17 Yes
82 Larry Cook - CA 2559-AU19-LCOO BB H 1 08:42:28.60 1754.482 00:08:38 Yes
83 Dino D'ercole - CA 0506-AU19-SFR BB H 2 08:43:05.20 1740.776 00:09:14 Yes
84 Andrew Broster - CA 3740-AU19-ARC BB H 2 08:43:20.40 1735.147 00:09:30 Yes
85 Denis Eastwood - CA 0127-AU19-HANG BB H 1 08:43:40.10 1727.905 00:09:49 Yes
86 John Hedderson - CA 9304-AU19-GSF BC C 10 08:45:00.40 1699.001 00:11:10 Yes
87 Dan Severns - CA 80736-AU19-MAN BB H 3 08:45:24.70 1690.443 00:11:34 Yes
88 Robert Justman - CA 90038-AU19-SOC BC C 1 08:45:45.00 1683.361 00:11:54 Lost
89 Pat Siino - CA 9118-AU19-COOK LTCK H 2 08:47:42.10 1643.635 00:13:51 Yes
90 Bieche & Lee - CA 9258-AU19-BIEC BB H 3 08:48:35.80 1626.038 00:14:45 Yes
91 Prout's Loft - CA 12579-AU19-ARPU BB H 1 08:54:09.70 1524.550 00:20:19 Yes
92 Gomez Loft - CA 1092-AU19-CHP BCSP H 1 08:54:13.90 1523.354 00:20:23 Yes
93 De Vriend Lofts - CA 5768-AU19-FSC BBPH H 1 08:54:39.20 1516.189 00:20:48 Yes
94 Chelaru Family Loft - CA 0116-AU19-BPRC BC H 2 08:54:41.10 1515.653 00:20:50 Yes
95 Armando Lopez - CA 1246-AU19-CHP BC C 1 08:54:42.80 1515.175 00:20:52 Yes
96 Armando De La O - CA 9111-AU19-COOK BB H 2 08:54:44.10 1514.809 00:20:53 Yes
97 Humberto Saenz - CA 9054-AU19-CGR BCSP H 1 08:54:53.90 1512.057 00:21:03 Yes
98 Robert Lin - CA 19078-AU19-SVS DC H 3 08:54:56.10 1511.440 00:21:05 Yes
99 Old West Enders - CA 1429-AU19-SFR BLK C 1 08:54:57.40 1511.076 00:21:07 Missing
100 Gudino Loft - CA 3078-AU19-GSF BCPD C 1 08:54:58.00 1510.908 00:21:07 Yes

There are 127 bird records

Note: These Race Results are unofficial and subject to change until verified by the Race Committee and declared final.